Weather History for Sunlight Mountain, CO

Change the Weather History Date:

Sunday, August 25, 2013

  Actual Average (KRIL) Record (KRIL)
Temperature  
Mean Temperature 54 °F 68 °F  
Max Temperature 60 °F 86 °F 97 °F (1929)
Min Temperature 48 °F 51 °F 33 °F (1962)
Degree Days  
Heating Degree Days 11 0  
Month to date heating degree days 0  
Since 1 June heating degree days 60  
Since 1 July heating degree days 1  
Cooling Degree Days 0 4  
Month to date cooling degree days 155  
Year to date cooling degree days 498  
Since 1 June cooling degree days 491  
Growing Degree Days 4 (Base 50)    
Moisture  
Dew Point 48 °F    
Average Humidity 83    
Maximum Humidity 100    
Minimum Humidity 63    
Precipitation  
Precipitation 0.00 in 0.04 in 0.73 in (1961)
Month to date precipitation 1.10  
Year to date precipitation 8.67  
Sea Level Pressure  
Sea Level Pressure 30.61 in    
Wind  
Wind Speed 0 mph (SW)    
Max Wind Speed 5 mph    
Max Gust Speed -    
Visibility 9 miles    
Events Rain    
T = Trace of Precipitation, MM = Missing Value Source: NWS Daily Summary

Daily Weather History Graph

Daily Weather History Graph

Search for Another Location

Airport:

Trip Planner

Search our weather history database for the weather conditions in past years. The results will help you decide how hot, cold, wet, or windy it might be!

Date:

Astronomy

Aug. 25, 2013 Rise Set
Actual Time 6:31 AM MDT 7:50 PM MDT
Civil Twilight 6:03 AM MDT 8:18 PM MDT
Nautical Twilight 5:30 AM MDT 8:51 PM MDT
Astronomical Twilight 4:55 AM MDT 9:26 PM MDT
Moon 10:25 PM MDT 11:34 AM MDT
Length of Visible Light 14h 14m
Length of Day
13h 18m
Waning Gibbous, 75% of the Moon is Illuminated
Aug 25
Waning Gibbous
Aug 28
Last Quarter
Sep 5
New
Sep 12
First Quarter
Sep 19
Full

Hourly Weather History & Observations

Time (MDT) Temp. Dew Point Humidity Pressure Visibility Wind Dir Wind Speed Gust Speed Precip Events Conditions
12:12 AM 51.8 °F 41.0 °F 67% 30.58 in 10.0 mi Calm Calm - N/A   Overcast
12:32 AM 51.8 °F 41.0 °F 67% 30.58 in 10.0 mi Calm Calm - N/A   Overcast
12:51 AM 51.8 °F 41.0 °F 67% 30.58 in 10.0 mi Calm Calm - N/A   Overcast
1:12 AM 51.8 °F 42.8 °F 71% 30.57 in 10.0 mi Calm Calm - N/A   Overcast
1:31 AM 51.8 °F 42.8 °F 71% 30.58 in 10.0 mi Calm Calm - N/A   Overcast
1:52 AM 51.8 °F 42.8 °F 71% 30.58 in 10.0 mi Calm Calm - N/A   Overcast
2:12 AM 51.8 °F 42.8 °F 71% 30.58 in 10.0 mi Calm Calm - N/A   Overcast
2:32 AM 51.8 °F 42.8 °F 71% 30.57 in 10.0 mi Calm Calm - N/A   Mostly Cloudy
2:52 AM 51.8 °F 42.8 °F 71% 30.57 in 10.0 mi Calm Calm - N/A   Scattered Clouds
3:12 AM 50.0 °F 42.8 °F 76% 30.57 in 10.0 mi Calm Calm - N/A   Clear
3:32 AM 50.0 °F 41.0 °F 71% 30.57 in 10.0 mi Calm Calm - N/A   Mostly Cloudy
3:52 AM 51.8 °F 42.8 °F 71% 30.58 in 10.0 mi Calm Calm - N/A   Mostly Cloudy
4:11 AM 50.0 °F 42.8 °F 76% 30.58 in 10.0 mi Calm Calm - N/A   Overcast
4:31 AM 50.0 °F 42.8 °F 76% 30.58 in 10.0 mi Calm Calm - N/A   Overcast
4:53 AM 50.0 °F 44.6 °F 82% 30.59 in 10.0 mi Calm Calm - N/A Rain Light Rain
5:13 AM 50.0 °F 44.6 °F 82% 30.59 in 10.0 mi SSW 3.5 mph - N/A   Overcast
5:33 AM 50.0 °F 44.6 °F 82% 30.59 in 10.0 mi Calm Calm - N/A   Overcast
5:53 AM 50.0 °F 44.6 °F 82% 30.59 in 10.0 mi Calm Calm - N/A Rain Light Rain
6:13 AM 48.2 °F 46.4 °F 93% 30.59 in 10.0 mi Calm Calm - N/A   Overcast
6:33 AM 50.0 °F 44.6 °F 82% 30.60 in 10.0 mi Calm Calm - N/A   Overcast
6:52 AM 50.0 °F 44.6 °F 82% 30.60 in 10.0 mi Calm Calm - N/A   Overcast
7:13 AM 50.0 °F 44.6 °F 82% 30.60 in 10.0 mi Calm Calm - N/A   Overcast
7:33 AM 50.0 °F 44.6 °F 82% 30.61 in 10.0 mi Calm Calm - N/A   Scattered Clouds
7:53 AM 50.0 °F 44.6 °F 82% 30.61 in 10.0 mi Calm Calm - N/A   Clear
8:13 AM 50.0 °F 44.6 °F 82% 30.60 in 10.0 mi SSW 3.5 mph - N/A   Clear
8:33 AM 51.8 °F 44.6 °F 76% 30.61 in 10.0 mi Calm Calm - N/A   Clear
8:52 AM 51.8 °F 44.6 °F 76% 30.61 in 10.0 mi Calm Calm - N/A   Clear
9:13 AM 53.6 °F 46.4 °F 77% 30.61 in 10.0 mi Calm Calm - N/A   Clear
9:33 AM 55.4 °F 46.4 °F 72% 30.62 in 10.0 mi Calm Calm - N/A   Scattered Clouds
9:53 AM 55.4 °F 46.4 °F 72% 30.63 in 10.0 mi Calm Calm - N/A   Mostly Cloudy
10:13 AM 55.4 °F 46.4 °F 72% 30.64 in 10.0 mi Calm Calm - N/A   Overcast
10:33 AM 55.4 °F 46.4 °F 72% 30.64 in 10.0 mi Calm Calm - N/A   Overcast
10:53 AM 59.0 °F 46.4 °F 63% 30.64 in 10.0 mi Calm Calm - N/A   Overcast
11:13 AM 60.8 °F 48.2 °F 63% 30.63 in 10.0 mi Calm Calm - N/A   Scattered Clouds
11:33 AM 59.0 °F 46.4 °F 63% 30.64 in 10.0 mi Calm Calm - N/A   Scattered Clouds
11:53 AM 60.8 °F 48.2 °F 63% 30.64 in 10.0 mi Calm Calm - N/A   Mostly Cloudy
12:13 PM 60.8 °F 48.2 °F 63% 30.64 in 10.0 mi Calm Calm - N/A   Overcast
12:32 PM 59.0 °F 48.2 °F 67% 30.63 in 10.0 mi Calm Calm - N/A   Overcast
12:53 PM 59.0 °F 48.2 °F 67% 30.63 in 10.0 mi Calm Calm - N/A   Overcast
1:13 PM 55.4 °F 50.0 °F 82% 30.63 in 10.0 mi Calm Calm - N/A   Drizzle
1:33 PM 53.6 °F 51.8 °F 94% 30.63 in 7.0 mi Calm Calm - N/A Rain Light Rain
1:53 PM 53.6 °F 51.8 °F 94% 30.63 in 5.0 mi WSW 3.5 mph - N/A Rain Light Rain
2:13 PM 55.4 °F 51.8 °F 88% 30.63 in 7.0 mi WSW 3.5 mph - N/A   Drizzle
2:33 PM 53.6 °F 51.8 °F 94% 30.62 in 0.2 mi WSW 3.5 mph - N/A Rain Light Rain
2:53 PM 53.6 °F 51.8 °F 94% 30.62 in 0.2 mi WSW 3.5 mph - N/A Rain Light Rain
3:13 PM 51.8 °F 51.8 °F 100% 30.62 in 0.2 mi West 4.6 mph - N/A   Light Drizzle
3:33 PM 51.8 °F 51.8 °F 100% 30.62 in 0.2 mi Calm Calm - N/A   Drizzle
3:53 PM 53.6 °F 51.8 °F 94% 30.62 in 0.2 mi WSW 3.5 mph - N/A Rain Light Rain
4:13 PM 53.6 °F 51.8 °F 94% 30.61 in 0.2 mi Calm Calm - N/A Rain Light Rain
4:33 PM 55.4 °F 53.6 °F 94% 30.60 in 10.0 mi Calm Calm - N/A   Overcast
4:52 PM 55.4 °F 53.6 °F 94% 30.60 in 10.0 mi Calm Calm - N/A   Overcast
5:13 PM 55.4 °F 51.8 °F 88% 30.60 in 10.0 mi Calm Calm - N/A   Overcast
5:32 PM 55.4 °F 53.6 °F 94% 30.60 in 5.0 mi Calm Calm - N/A   Overcast
5:53 PM 53.6 °F 53.6 °F 100% 30.60 in 1.8 mi Calm Calm - N/A   Overcast
6:13 PM 55.4 °F 53.6 °F 94% 30.60 in 7.0 mi Calm Calm - N/A   Overcast
6:32 PM 55.4 °F 51.8 °F 88% 30.60 in 10.0 mi Calm Calm - N/A   Overcast
6:52 PM 55.4 °F 51.8 °F 88% 30.59 in 10.0 mi Calm Calm - N/A   Overcast
7:13 PM 55.4 °F 51.8 °F 88% 30.59 in 10.0 mi Calm Calm - N/A   Overcast
7:33 PM 53.6 °F 51.8 °F 94% 30.59 in 10.0 mi Calm Calm - N/A   Overcast
7:52 PM 53.6 °F 50.0 °F 88% 30.60 in 10.0 mi Calm Calm - N/A   Overcast
8:13 PM 53.6 °F 51.8 °F 94% 30.60 in 7.0 mi Calm Calm - N/A Rain Rain
8:32 PM 51.8 °F 51.8 °F 100% 30.60 in 7.0 mi Calm Calm - N/A Rain Light Rain
8:53 PM 51.8 °F 50.0 °F 94% 30.61 in 10.0 mi Calm Calm - N/A   Overcast
9:13 PM 51.8 °F 50.0 °F 94% 30.61 in 10.0 mi Calm Calm - N/A   Overcast
9:33 PM 51.8 °F 50.0 °F 94% 30.62 in 10.0 mi Calm Calm - N/A   Overcast
9:53 PM 51.8 °F 50.0 °F 94% 30.62 in 10.0 mi Calm Calm - N/A   Overcast
10:13 PM 51.8 °F 50.0 °F 94% 30.62 in 10.0 mi Calm Calm - N/A   Scattered Clouds
10:33 PM 51.8 °F 50.0 °F 94% 30.62 in 7.0 mi Calm Calm - N/A   Scattered Clouds
10:53 PM 51.8 °F 50.0 °F 94% 30.62 in 7.0 mi Calm Calm - N/A   Mostly Cloudy
11:12 PM 51.8 °F 50.0 °F 94% 30.62 in 7.0 mi Calm Calm - N/A   Overcast
11:33 PM 51.8 °F 50.0 °F 94% 30.63 in 10.0 mi Calm Calm - N/A   Light Drizzle
11:53 PM 51.8 °F 50.0 °F 94% 30.62 in 7.0 mi SSW 4.6 mph - N/A   Overcast